Year,Month,Day,Hour,Minute,Value (Times are PST for temperature in C)
2005,08,31,00,00,15.80
2005,08,31,00,01,15.80
2005,08,31,00,02,15.80
2005,08,31,00,03,15.80
2005,08,31,00,04,15.80
2005,08,31,00,05,15.80
2005,08,31,00,06,15.80
2005,08,31,00,07,15.80
2005,08,31,00,08,15.80
2005,08,31,00,09,15.80
2005,08,31,00,10,15.80
2005,08,31,00,11,15.80
2005,08,31,00,12,15.80
2005,08,31,00,13,15.80
2005,08,31,00,14,15.80
2005,08,31,00,15,15.90
2005,08,31,00,16,16.00
2005,08,31,00,17,15.90
2005,08,31,00,18,15.90
2005,08,31,00,19,15.90
2005,08,31,00,20,15.90
2005,08,31,00,21,15.90
2005,08,31,00,22,15.80
2005,08,31,00,23,15.80
2005,08,31,00,24,15.80
2005,08,31,00,25,15.80
2005,08,31,00,26,15.80
2005,08,31,00,27,15.80
2005,08,31,00,28,15.80
2005,08,31,00,29,15.80
2005,08,31,00,30,15.80
2005,08,31,00,31,15.90
2005,08,31,00,32,15.90
2005,08,31,00,33,15.90
2005,08,31,00,34,15.90
2005,08,31,00,35,15.90
2005,08,31,00,36,15.80
2005,08,31,00,37,15.80
2005,08,31,00,38,15.80
2005,08,31,00,39,15.80
2005,08,31,00,40,15.70
2005,08,31,00,41,15.70
2005,08,31,00,42,15.70
2005,08,31,00,43,15.70
2005,08,31,00,44,15.70
2005,08,31,00,45,15.70
2005,08,31,00,46,15.70
2005,08,31,00,47,15.70
2005,08,31,00,48,15.70
2005,08,31,00,49,15.70
2005,08,31,00,50,15.70
2005,08,31,00,51,15.70
2005,08,31,00,52,15.70
2005,08,31,00,53,15.70
2005,08,31,00,54,15.70
2005,08,31,00,55,15.70
2005,08,31,00,56,15.70
2005,08,31,00,57,15.60
2005,08,31,00,58,15.60
2005,08,31,00,59,15.60
2005,08,31,01,00,15.50
2005,08,31,01,01,15.50
2005,08,31,01,02,15.60
2005,08,31,01,03,15.60
2005,08,31,01,04,15.50
2005,08,31,01,05,15.50
2005,08,31,01,06,15.50
2005,08,31,01,07,15.50
2005,08,31,01,08,15.50
2005,08,31,01,09,15.50
2005,08,31,01,10,15.50
2005,08,31,01,11,15.50
2005,08,31,01,12,15.40
2005,08,31,01,13,15.40
2005,08,31,01,14,15.40
2005,08,31,01,15,15.40
2005,08,31,01,16,15.40
2005,08,31,01,17,15.40
2005,08,31,01,18,15.40
2005,08,31,01,19,15.40
2005,08,31,01,20,15.30
2005,08,31,01,21,15.30
2005,08,31,01,22,15.30
2005,08,31,01,23,15.30
2005,08,31,01,24,15.30
2005,08,31,01,25,15.30
2005,08,31,01,26,15.30
2005,08,31,01,27,15.30
2005,08,31,01,28,15.20
2005,08,31,01,29,15.20
2005,08,31,01,30,15.20
2005,08,31,01,31,15.10
2005,08,31,01,32,15.10
2005,08,31,01,33,15.10
2005,08,31,01,34,15.10
2005,08,31,01,35,15.00
2005,08,31,01,36,15.00
2005,08,31,01,37,15.10
2005,08,31,01,38,15.10
2005,08,31,01,39,15.00
2005,08,31,01,40,15.00
2005,08,31,01,41,15.00
2005,08,31,01,42,15.00
2005,08,31,01,43,15.00
2005,08,31,01,44,15.00
2005,08,31,01,45,14.90
2005,08,31,01,46,14.90
2005,08,31,01,47,14.90
2005,08,31,01,48,14.90
2005,08,31,01,49,14.90
2005,08,31,01,50,14.90
2005,08,31,01,51,14.90
2005,08,31,01,52,14.90
2005,08,31,01,53,14.90
2005,08,31,01,54,14.90
2005,08,31,01,55,14.80
2005,08,31,01,56,14.90
2005,08,31,01,57,14.80
2005,08,31,01,58,14.80
2005,08,31,01,59,14.80
2005,08,31,02,00,14.80
2005,08,31,02,01,14.80
2005,08,31,02,02,14.80
2005,08,31,02,03,14.80
2005,08,31,02,04,14.70
2005,08,31,02,05,14.80
2005,08,31,02,06,14.80
2005,08,31,02,07,14.80
2005,08,31,02,08,14.70
2005,08,31,02,09,14.70
2005,08,31,02,10,14.60
2005,08,31,02,11,14.70
2005,08,31,02,12,14.70
2005,08,31,02,13,14.70
2005,08,31,02,14,14.70
2005,08,31,02,15,14.60
2005,08,31,02,16,14.60
2005,08,31,02,17,14.70
2005,08,31,02,18,14.70
2005,08,31,02,19,14.70
2005,08,31,02,20,14.60
2005,08,31,02,21,14.60
2005,08,31,02,22,14.60
2005,08,31,02,23,14.60
2005,08,31,02,24,14.60
2005,08,31,02,25,14.60
2005,08,31,02,26,14.50
2005,08,31,02,27,14.50
2005,08,31,02,28,14.50
2005,08,31,02,29,14.60
2005,08,31,02,30,14.60
2005,08,31,02,31,14.60
2005,08,31,02,32,14.50
2005,08,31,02,33,14.50
2005,08,31,02,34,14.40
2005,08,31,02,35,14.50
2005,08,31,02,36,14.50
2005,08,31,02,37,14.50
2005,08,31,02,38,14.50
2005,08,31,02,39,14.50
2005,08,31,02,40,14.50
2005,08,31,02,41,14.50
2005,08,31,02,42,14.50
2005,08,31,02,43,14.50
2005,08,31,02,44,14.50
2005,08,31,02,45,14.50
2005,08,31,02,46,14.50
2005,08,31,02,47,14.50
2005,08,31,02,48,14.50
2005,08,31,02,49,14.40
2005,08,31,02,50,14.30
2005,08,31,02,51,14.30
2005,08,31,02,52,14.40
2005,08,31,02,53,14.40
2005,08,31,02,54,14.40
2005,08,31,02,55,14.40
2005,08,31,02,56,14.40
2005,08,31,02,57,14.40
2005,08,31,02,58,14.40
2005,08,31,02,59,14.40
2005,08,31,03,00,14.40
2005,08,31,03,01,14.40
2005,08,31,03,02,14.40
2005,08,31,03,03,14.40
2005,08,31,03,04,14.40
2005,08,31,03,05,14.40
2005,08,31,03,06,14.40
2005,08,31,03,07,14.40
2005,08,31,03,08,14.40
2005,08,31,03,09,14.40
2005,08,31,03,10,14.40
2005,08,31,03,11,14.30
2005,08,31,03,12,14.20
2005,08,31,03,13,14.20
2005,08,31,03,14,14.20
2005,08,31,03,15,14.20
2005,08,31,03,16,14.20
2005,08,31,03,17,14.20
2005,08,31,03,18,14.10
2005,08,31,03,19,14.20
2005,08,31,03,20,14.20
2005,08,31,03,21,14.10
2005,08,31,03,22,14.10
2005,08,31,03,23,14.00
2005,08,31,03,24,14.10
2005,08,31,03,25,14.10
2005,08,31,03,26,14.10
2005,08,31,03,27,14.10
2005,08,31,03,28,14.10
2005,08,31,03,29,14.10
2005,08,31,03,30,14.00
2005,08,31,03,31,14.00
2005,08,31,03,32,14.00
2005,08,31,03,33,14.00
2005,08,31,03,34,14.00
2005,08,31,03,35,14.00
2005,08,31,03,36,14.00
2005,08,31,03,37,14.00
2005,08,31,03,38,14.10
2005,08,31,03,39,14.10
2005,08,31,03,40,14.10
2005,08,31,03,41,14.10
2005,08,31,03,42,14.10
2005,08,31,03,43,14.10
2005,08,31,03,44,14.00
2005,08,31,03,45,14.00
2005,08,31,03,46,13.90
2005,08,31,03,47,13.80
2005,08,31,03,48,13.80
2005,08,31,03,49,13.70
2005,08,31,03,50,13.70
2005,08,31,03,51,13.70
2005,08,31,03,52,13.70
2005,08,31,03,53,13.70
2005,08,31,03,54,13.70
2005,08,31,03,55,13.70
2005,08,31,03,56,13.70
2005,08,31,03,57,13.60
2005,08,31,03,58,13.60
2005,08,31,03,59,13.50
2005,08,31,04,00,13.50
2005,08,31,04,01,13.40
2005,08,31,04,02,13.40
2005,08,31,04,03,13.30
2005,08,31,04,04,13.40
2005,08,31,04,05,13.40
2005,08,31,04,06,13.30
2005,08,31,04,07,13.30
2005,08,31,04,08,13.40
2005,08,31,04,09,13.40
2005,08,31,04,10,13.40
2005,08,31,04,11,13.50
2005,08,31,04,12,13.50
2005,08,31,04,13,13.50
2005,08,31,04,14,13.50
2005,08,31,04,15,13.50
2005,08,31,04,16,13.50
2005,08,31,04,17,13.50
2005,08,31,04,18,13.40
2005,08,31,04,19,13.40
2005,08,31,04,20,13.40
2005,08,31,04,21,13.40
2005,08,31,04,22,13.30
2005,08,31,04,23,13.30
2005,08,31,04,24,13.30
2005,08,31,04,25,13.40
2005,08,31,04,26,13.40
2005,08,31,04,27,13.40
2005,08,31,04,28,13.30
2005,08,31,04,29,13.30
2005,08,31,04,30,13.30
2005,08,31,04,31,13.30
2005,08,31,04,32,13.30
2005,08,31,04,33,13.30
2005,08,31,04,34,13.20
2005,08,31,04,35,13.20
2005,08,31,04,36,13.20
2005,08,31,04,37,13.20
2005,08,31,04,38,13.10
2005,08,31,04,39,13.10
2005,08,31,04,40,13.10
2005,08,31,04,41,13.10
2005,08,31,04,42,13.10
2005,08,31,04,43,13.10
2005,08,31,04,44,13.10
2005,08,31,04,45,13.00
2005,08,31,04,46,13.00
2005,08,31,04,47,12.90
2005,08,31,04,48,12.80
2005,08,31,04,49,12.80
2005,08,31,04,50,12.80
2005,08,31,04,51,12.80
2005,08,31,04,52,12.90
2005,08,31,04,53,12.90
2005,08,31,04,54,12.90
2005,08,31,04,55,12.90
2005,08,31,04,56,12.90
2005,08,31,04,57,12.90
2005,08,31,04,58,12.90
2005,08,31,04,59,12.90
2005,08,31,05,00,12.90
2005,08,31,05,01,12.80
2005,08,31,05,02,12.80
2005,08,31,05,03,12.80
2005,08,31,05,04,12.80
2005,08,31,05,05,12.80
2005,08,31,05,06,12.80
2005,08,31,05,07,12.70
2005,08,31,05,08,12.70
2005,08,31,05,09,12.70
2005,08,31,05,10,12.70
2005,08,31,05,11,12.70
2005,08,31,05,12,12.70
2005,08,31,05,13,12.70
2005,08,31,05,14,12.70
2005,08,31,05,15,12.70
2005,08,31,05,16,12.70
2005,08,31,05,17,12.70
2005,08,31,05,18,12.70
2005,08,31,05,19,12.70
2005,08,31,05,20,12.60
2005,08,31,05,21,12.60
2005,08,31,05,22,12.60
2005,08,31,05,23,12.60
2005,08,31,05,24,12.50
2005,08,31,05,25,12.50
2005,08,31,05,26,12.50
2005,08,31,05,27,12.50
2005,08,31,05,28,12.50
2005,08,31,05,29,12.50
2005,08,31,05,30,12.60
2005,08,31,05,31,12.60
2005,08,31,05,32,12.60
2005,08,31,05,33,12.60
2005,08,31,05,34,12.60
2005,08,31,05,35,12.50
2005,08,31,05,36,12.50
2005,08,31,05,37,12.50
2005,08,31,05,38,12.50
2005,08,31,05,39,12.50
2005,08,31,05,40,12.50
2005,08,31,05,41,12.50
2005,08,31,05,42,12.40
2005,08,31,05,43,12.40
2005,08,31,05,44,12.40
2005,08,31,05,45,12.40
2005,08,31,05,46,12.40
2005,08,31,05,47,12.40
2005,08,31,05,48,12.40
2005,08,31,05,49,12.50
2005,08,31,05,50,12.60
2005,08,31,05,51,12.70
2005,08,31,05,52,12.70
2005,08,31,05,53,12.70
2005,08,31,05,54,12.70
2005,08,31,05,55,12.60
2005,08,31,05,56,12.60
2005,08,31,05,57,12.50
2005,08,31,05,58,12.50
2005,08,31,05,59,12.50
2005,08,31,06,00,12.50
2005,08,31,06,01,12.50
2005,08,31,06,02,12.60
2005,08,31,06,03,12.60
2005,08,31,06,04,12.50
2005,08,31,06,05,12.50
2005,08,31,06,06,12.40
2005,08,31,06,07,12.40
2005,08,31,06,08,12.30
2005,08,31,06,09,12.30
2005,08,31,06,10,12.30
2005,08,31,06,11,12.40
2005,08,31,06,12,12.50
2005,08,31,06,13,12.60
2005,08,31,06,14,12.60
2005,08,31,06,15,12.60
2005,08,31,06,16,12.60
2005,08,31,06,17,12.60
2005,08,31,06,18,12.50
2005,08,31,06,19,12.50
2005,08,31,06,20,12.50
2005,08,31,06,21,12.40
2005,08,31,06,22,12.30
2005,08,31,06,23,12.30
2005,08,31,06,24,12.30
2005,08,31,06,25,12.30
2005,08,31,06,26,12.30
2005,08,31,06,27,12.30
2005,08,31,06,28,12.30
2005,08,31,06,29,12.40
2005,08,31,06,30,12.40
2005,08,31,06,31,12.40
2005,08,31,06,32,12.40
2005,08,31,06,33,12.40
2005,08,31,06,34,12.30
2005,08,31,06,35,12.30
2005,08,31,06,36,12.30
2005,08,31,06,37,12.20
2005,08,31,06,38,12.10
2005,08,31,06,39,12.10
2005,08,31,06,40,12.00
2005,08,31,06,41,12.00
2005,08,31,06,42,12.00
2005,08,31,06,43,12.00
2005,08,31,06,44,12.00
2005,08,31,06,45,12.00
2005,08,31,06,46,12.00
2005,08,31,06,47,12.00
2005,08,31,06,48,12.00
2005,08,31,06,49,12.00
2005,08,31,06,50,12.00
2005,08,31,06,51,12.00
2005,08,31,06,52,12.00
2005,08,31,06,53,12.00
2005,08,31,06,54,12.00
2005,08,31,06,55,12.00
2005,08,31,06,56,12.00
2005,08,31,06,57,12.10
2005,08,31,06,58,12.10
2005,08,31,06,59,12.10
2005,08,31,07,00,12.10
2005,08,31,07,01,12.10
2005,08,31,07,02,12.10
2005,08,31,07,03,12.10
2005,08,31,07,04,12.20
2005,08,31,07,05,12.20
2005,08,31,07,06,12.20
2005,08,31,07,07,12.30
2005,08,31,07,08,12.30
2005,08,31,07,09,12.30
2005,08,31,07,10,12.40
2005,08,31,07,11,12.40
2005,08,31,07,12,12.60
2005,08,31,07,13,12.70
2005,08,31,07,14,12.80
2005,08,31,07,15,12.80
2005,08,31,07,16,12.90
2005,08,31,07,17,13.10
2005,08,31,07,18,13.20
2005,08,31,07,19,13.30
2005,08,31,07,20,13.30
2005,08,31,07,21,13.30
2005,08,31,07,22,13.40
2005,08,31,07,23,13.40
2005,08,31,07,24,13.50
2005,08,31,07,25,13.50
2005,08,31,07,26,13.50
2005,08,31,07,27,13.60
2005,08,31,07,28,13.60
2005,08,31,07,29,13.60
2005,08,31,07,30,13.60
2005,08,31,07,31,13.60
2005,08,31,07,32,13.60
2005,08,31,07,33,13.60
2005,08,31,07,34,13.60
2005,08,31,07,35,13.60
2005,08,31,07,36,13.50
2005,08,31,07,37,13.60
2005,08,31,07,38,13.60
2005,08,31,07,39,13.70
2005,08,31,07,40,13.70
2005,08,31,07,41,13.70
2005,08,31,07,42,13.80
2005,08,31,07,43,13.80
2005,08,31,07,44,13.90
2005,08,31,07,45,13.90
2005,08,31,07,46,14.00
2005,08,31,07,47,14.00
2005,08,31,07,48,14.00
2005,08,31,07,49,14.10
2005,08,31,07,50,14.10
2005,08,31,07,51,14.10
2005,08,31,07,52,14.20
2005,08,31,07,53,14.30
2005,08,31,07,54,14.40
2005,08,31,07,55,14.50
2005,08,31,07,56,14.60
2005,08,31,07,57,14.70
2005,08,31,07,58,14.80
2005,08,31,07,59,14.80
2005,08,31,08,00,14.80
2005,08,31,08,01,14.70
2005,08,31,08,02,14.70
2005,08,31,08,03,14.70
2005,08,31,08,04,14.70
2005,08,31,08,05,14.80
2005,08,31,08,06,14.80
2005,08,31,08,07,14.90
2005,08,31,08,08,15.00
2005,08,31,08,09,15.00
2005,08,31,08,10,15.10
2005,08,31,08,11,15.20
2005,08,31,08,12,15.30
2005,08,31,08,13,15.30
2005,08,31,08,14,15.40
2005,08,31,08,15,15.50
2005,08,31,08,16,15.50
2005,08,31,08,17,15.50
2005,08,31,08,18,15.50
2005,08,31,08,19,15.60
2005,08,31,08,20,15.60
2005,08,31,08,21,15.80
2005,08,31,08,22,15.80
2005,08,31,08,23,15.80
2005,08,31,08,24,15.80
2005,08,31,08,25,15.80
2005,08,31,08,26,15.80
2005,08,31,08,27,15.80
2005,08,31,08,28,15.80
2005,08,31,08,29,15.80
2005,08,31,08,30,15.80
2005,08,31,08,31,15.90
2005,08,31,08,32,16.00
2005,08,31,08,33,16.00
2005,08,31,08,34,16.10
2005,08,31,08,35,16.10
2005,08,31,08,36,16.10
2005,08,31,08,37,16.20
2005,08,31,08,38,16.20
2005,08,31,08,39,16.20
2005,08,31,08,40,16.30
2005,08,31,08,41,16.20
2005,08,31,08,42,16.20
2005,08,31,08,43,16.30
2005,08,31,08,44,16.30
2005,08,31,08,45,16.30
2005,08,31,08,46,16.30
2005,08,31,08,47,16.30
2005,08,31,08,48,16.30
2005,08,31,08,49,16.40
2005,08,31,08,50,16.40
2005,08,31,08,51,16.60
2005,08,31,08,52,16.70
2005,08,31,08,53,16.70
2005,08,31,08,54,16.70
2005,08,31,08,55,16.80
2005,08,31,08,56,16.80
2005,08,31,08,57,16.90
2005,08,31,08,58,16.90
2005,08,31,08,59,17.00
2005,08,31,09,00,17.00
2005,08,31,09,01,17.00
2005,08,31,09,02,17.00
2005,08,31,09,03,17.10
2005,08,31,09,04,17.20
2005,08,31,09,05,17.30
2005,08,31,09,06,17.40
2005,08,31,09,07,17.50
2005,08,31,09,08,17.50
2005,08,31,09,09,17.50
2005,08,31,09,10,17.50
2005,08,31,09,11,17.40
2005,08,31,09,12,17.40
2005,08,31,09,13,17.50
2005,08,31,09,14,17.50
2005,08,31,09,15,17.60
2005,08,31,09,16,17.50
2005,08,31,09,17,17.20
2005,08,31,09,18,16.90
2005,08,31,09,19,16.70
2005,08,31,09,20,16.30
2005,08,31,09,21,16.00
2005,08,31,09,22,15.70
2005,08,31,09,23,15.50
2005,08,31,09,24,15.30
2005,08,31,09,25,15.10
2005,08,31,09,26,14.90
2005,08,31,09,27,14.70
2005,08,31,09,28,14.60
2005,08,31,09,29,14.60
2005,08,31,09,30,14.60
2005,08,31,09,31,14.50
2005,08,31,09,32,14.50
2005,08,31,09,33,14.50
2005,08,31,09,34,14.60
2005,08,31,09,35,14.60
2005,08,31,09,36,14.70
2005,08,31,09,37,14.80
2005,08,31,09,38,14.80
2005,08,31,09,39,14.80
2005,08,31,09,40,14.80
2005,08,31,09,41,14.80
2005,08,31,09,42,14.80
2005,08,31,09,43,14.80
2005,08,31,09,44,14.80
2005,08,31,09,45,14.80
2005,08,31,09,46,14.90
2005,08,31,09,47,15.00
2005,08,31,09,48,15.10
2005,08,31,09,49,15.10
2005,08,31,09,50,15.20
2005,08,31,09,51,15.30
2005,08,31,09,52,15.30
2005,08,31,09,53,15.40
2005,08,31,09,54,15.50
2005,08,31,09,55,15.60
2005,08,31,09,56,15.80
2005,08,31,09,57,15.90
2005,08,31,09,58,16.10
2005,08,31,09,59,16.20
2005,08,31,10,00,16.30
2005,08,31,10,01,16.30
2005,08,31,10,02,16.30
2005,08,31,10,03,16.20
2005,08,31,10,04,16.30
2005,08,31,10,05,16.20
2005,08,31,10,06,16.20
2005,08,31,10,07,16.30
2005,08,31,10,08,16.30
2005,08,31,10,09,16.40
2005,08,31,10,10,16.40
2005,08,31,10,11,16.60
2005,08,31,10,12,16.70
2005,08,31,10,13,16.70
2005,08,31,10,14,16.80
2005,08,31,10,15,16.80
2005,08,31,10,16,16.80
2005,08,31,10,17,16.90
2005,08,31,10,18,16.90
2005,08,31,10,19,16.90
2005,08,31,10,20,16.90
2005,08,31,10,21,16.90
2005,08,31,10,22,16.90
2005,08,31,10,23,17.00
2005,08,31,10,24,17.10
2005,08,31,10,25,17.10
2005,08,31,10,26,17.10
2005,08,31,10,27,17.10
2005,08,31,10,28,17.20
2005,08,31,10,29,17.10
2005,08,31,10,30,17.10
2005,08,31,10,31,17.20
2005,08,31,10,32,17.20
2005,08,31,10,33,17.00
2005,08,31,10,34,17.00
2005,08,31,10,35,17.00
2005,08,31,10,36,17.30
2005,08,31,10,37,17.30
2005,08,31,10,38,17.40
2005,08,31,10,39,17.50
2005,08,31,10,40,17.50
2005,08,31,10,41,17.30
2005,08,31,10,42,17.20
2005,08,31,10,43,17.10
2005,08,31,10,44,17.20
2005,08,31,10,45,17.30
2005,08,31,10,46,17.40
2005,08,31,10,47,17.50
2005,08,31,10,48,17.50
2005,08,31,10,49,17.50
2005,08,31,10,50,17.40
2005,08,31,10,51,17.40
2005,08,31,10,52,17.40
2005,08,31,10,53,17.30
2005,08,31,10,54,17.30
2005,08,31,10,55,17.30
2005,08,31,10,56,17.40
2005,08,31,10,57,17.30
2005,08,31,10,58,17.40
2005,08,31,10,59,17.50
2005,08,31,11,00,17.50
2005,08,31,11,01,17.30
2005,08,31,11,02,17.30
2005,08,31,11,03,17.30
2005,08,31,11,04,17.10
2005,08,31,11,05,17.20
2005,08,31,11,06,17.30
2005,08,31,11,07,17.30
2005,08,31,11,08,17.30
2005,08,31,11,09,17.30
2005,08,31,11,10,17.20
2005,08,31,11,11,17.20
2005,08,31,11,12,17.20
2005,08,31,11,13,17.10
2005,08,31,11,14,16.90
2005,08,31,11,15,16.80
2005,08,31,11,16,16.70
2005,08,31,11,17,16.70
2005,08,31,11,18,16.70
2005,08,31,11,19,16.80
2005,08,31,11,20,16.90
2005,08,31,11,21,17.20
2005,08,31,11,22,17.20
2005,08,31,11,23,17.00
2005,08,31,11,24,17.00
2005,08,31,11,25,16.80
2005,08,31,11,26,16.80
2005,08,31,11,27,16.70
2005,08,31,11,28,16.70
2005,08,31,11,29,16.80
2005,08,31,11,30,16.90
2005,08,31,11,31,16.80
2005,08,31,11,32,16.90
2005,08,31,11,33,17.00
2005,08,31,11,34,16.80
2005,08,31,11,35,16.80
2005,08,31,11,36,16.80
2005,08,31,11,37,16.80
2005,08,31,11,38,16.90
2005,08,31,11,39,17.10
2005,08,31,11,40,17.00
2005,08,31,11,41,16.80
2005,08,31,11,42,16.70
2005,08,31,11,43,16.80
2005,08,31,11,44,17.00
2005,08,31,11,45,17.10
2005,08,31,11,46,17.30
2005,08,31,11,47,17.40
2005,08,31,11,48,17.70
2005,08,31,11,49,17.80
2005,08,31,11,50,18.00
2005,08,31,11,51,18.10
2005,08,31,11,52,18.40
2005,08,31,11,53,18.60
2005,08,31,11,54,18.90
2005,08,31,11,55,19.20
2005,08,31,11,56,19.00
2005,08,31,11,57,18.70
2005,08,31,11,58,18.30
2005,08,31,11,59,18.00
2005,08,31,12,00,17.90
2005,08,31,12,01,17.80
2005,08,31,12,02,17.60
2005,08,31,12,03,17.50
2005,08,31,12,04,17.50
2005,08,31,12,05,17.50
2005,08,31,12,06,17.60
2005,08,31,12,07,17.60
2005,08,31,12,08,17.70
2005,08,31,12,09,17.70
2005,08,31,12,10,17.70
2005,08,31,12,11,17.50
2005,08,31,12,12,17.40
2005,08,31,12,13,17.30
2005,08,31,12,14,17.20
2005,08,31,12,15,17.20
2005,08,31,12,16,17.20
2005,08,31,12,17,17.30
2005,08,31,12,18,17.30
2005,08,31,12,19,17.40
2005,08,31,12,20,17.30
2005,08,31,12,21,17.40
2005,08,31,12,22,17.40
2005,08,31,12,23,17.70
2005,08,31,12,24,17.80
2005,08,31,12,25,17.80
2005,08,31,12,26,17.90
2005,08,31,12,27,17.90
2005,08,31,12,28,17.90
2005,08,31,12,29,17.80
2005,08,31,12,30,17.70
2005,08,31,12,31,17.60
2005,08,31,12,32,17.60
2005,08,31,12,33,17.60
2005,08,31,12,34,17.70
2005,08,31,12,35,17.60
2005,08,31,12,36,17.60
2005,08,31,12,37,17.60
2005,08,31,12,38,17.60
2005,08,31,12,39,17.70
2005,08,31,12,40,18.00
2005,08,31,12,41,18.20
2005,08,31,12,42,18.20
2005,08,31,12,43,18.30
2005,08,31,12,44,18.50
2005,08,31,12,45,18.50
2005,08,31,12,46,18.70
2005,08,31,12,47,18.90
2005,08,31,12,48,18.80
2005,08,31,12,49,18.60
2005,08,31,12,50,18.50
2005,08,31,12,51,18.60
2005,08,31,12,52,18.70
2005,08,31,12,53,18.70
2005,08,31,12,54,18.70
2005,08,31,12,55,18.60
2005,08,31,12,56,18.40
2005,08,31,12,57,18.30
2005,08,31,12,58,18.20
2005,08,31,12,59,18.10
2005,08,31,13,00,18.10
2005,08,31,13,01,18.00
2005,08,31,13,02,17.90
2005,08,31,13,03,18.00
2005,08,31,13,04,18.00
2005,08,31,13,05,18.10
2005,08,31,13,06,18.00
2005,08,31,13,07,17.90
2005,08,31,13,08,17.70
2005,08,31,13,09,17.60
2005,08,31,13,10,17.50
2005,08,31,13,11,17.40
2005,08,31,13,12,17.50
2005,08,31,13,13,17.50
2005,08,31,13,14,17.40
2005,08,31,13,15,17.40
2005,08,31,13,16,17.30
2005,08,31,13,17,17.30
2005,08,31,13,18,17.30
2005,08,31,13,19,17.40
2005,08,31,13,20,17.40
2005,08,31,13,21,17.40
2005,08,31,13,22,17.50
2005,08,31,13,23,17.50
2005,08,31,13,24,17.70
2005,08,31,13,25,17.80
2005,08,31,13,26,17.80
2005,08,31,13,27,17.80
2005,08,31,13,28,17.80
2005,08,31,13,29,17.70
2005,08,31,13,30,17.70
2005,08,31,13,31,17.70
2005,08,31,13,32,17.60
2005,08,31,13,33,17.50
2005,08,31,13,34,17.40
2005,08,31,13,35,17.40
2005,08,31,13,36,17.40
2005,08,31,13,37,17.50
2005,08,31,13,38,17.50
2005,08,31,13,39,17.50
2005,08,31,13,40,17.40
2005,08,31,13,41,17.40
2005,08,31,13,42,17.40
2005,08,31,13,43,17.50
2005,08,31,13,44,17.70
2005,08,31,13,45,17.80
2005,08,31,13,46,17.80
2005,08,31,13,47,17.90
2005,08,31,13,48,17.90
2005,08,31,13,49,17.90
2005,08,31,13,50,17.90
2005,08,31,13,51,17.90
2005,08,31,13,52,18.10
2005,08,31,13,53,18.20
2005,08,31,13,54,18.30
2005,08,31,13,55,18.40
2005,08,31,13,56,18.40
2005,08,31,13,57,18.50
2005,08,31,13,58,18.50
2005,08,31,13,59,18.60
2005,08,31,14,00,18.90
2005,08,31,14,01,19.20
2005,08,31,14,02,19.50
2005,08,31,14,03,20.10
2005,08,31,14,04,20.30
2005,08,31,14,05,20.50
2005,08,31,14,06,20.50
2005,08,31,14,07,20.50
2005,08,31,14,08,20.50
2005,08,31,14,09,20.60
2005,08,31,14,10,20.60
2005,08,31,14,11,20.60
2005,08,31,14,12,20.40
2005,08,31,14,13,20.20
2005,08,31,14,14,20.20
2005,08,31,14,15,20.30
2005,08,31,14,16,20.40
2005,08,31,14,17,20.70
2005,08,31,14,18,20.70
2005,08,31,14,19,20.80
2005,08,31,14,20,21.00
2005,08,31,14,21,21.00
2005,08,31,14,22,21.00
2005,08,31,14,23,20.80
2005,08,31,14,24,20.60
2005,08,31,14,25,20.30
2005,08,31,14,26,20.40
2005,08,31,14,27,20.30
2005,08,31,14,28,20.20
2005,08,31,14,29,20.40
2005,08,31,14,30,20.20
2005,08,31,14,31,19.90
2005,08,31,14,32,19.70
2005,08,31,14,33,19.90
2005,08,31,14,34,20.00
2005,08,31,14,35,19.90
2005,08,31,14,36,19.70
2005,08,31,14,37,19.50
2005,08,31,14,38,19.60
2005,08,31,14,39,19.50
2005,08,31,14,40,19.40
2005,08,31,14,41,19.20
2005,08,31,14,42,19.10
2005,08,31,14,43,19.10
2005,08,31,14,44,19.10
2005,08,31,14,45,19.00
2005,08,31,14,46,18.80
2005,08,31,14,47,18.90
2005,08,31,14,48,18.80
2005,08,31,14,49,18.70
2005,08,31,14,50,18.70
2005,08,31,14,51,18.70
2005,08,31,14,52,18.70
2005,08,31,14,53,18.80
2005,08,31,14,54,18.70
2005,08,31,14,55,18.70
2005,08,31,14,56,18.80
2005,08,31,14,57,18.80
2005,08,31,14,58,19.10
2005,08,31,14,59,19.20
2005,08,31,15,00,19.40
2005,08,31,15,01,19.60
2005,08,31,15,02,19.80
2005,08,31,15,03,19.80
2005,08,31,15,04,19.80
2005,08,31,15,05,19.90
2005,08,31,15,06,19.90
2005,08,31,15,07,20.00
2005,08,31,15,08,19.70
2005,08,31,15,09,19.70
2005,08,31,15,10,19.50
2005,08,31,15,11,19.40
2005,08,31,15,12,19.30
2005,08,31,15,13,19.20
2005,08,31,15,14,19.20
2005,08,31,15,15,19.40
2005,08,31,15,16,19.60
2005,08,31,15,17,19.90
2005,08,31,15,18,20.00
2005,08,31,15,19,20.10
2005,08,31,15,20,20.00
2005,08,31,15,21,19.70
2005,08,31,15,22,19.60
2005,08,31,15,23,19.50
2005,08,31,15,24,19.40
2005,08,31,15,25,19.40
2005,08,31,15,26,19.40
2005,08,31,15,27,19.30
2005,08,31,15,28,19.20
2005,08,31,15,29,19.30
2005,08,31,15,30,19.30
2005,08,31,15,31,19.30
2005,08,31,15,32,19.30
2005,08,31,15,33,19.20
2005,08,31,15,34,19.10
2005,08,31,15,35,19.10
2005,08,31,15,36,19.30
2005,08,31,15,37,19.30
2005,08,31,15,38,19.10
2005,08,31,15,39,19.10
2005,08,31,15,40,19.30
2005,08,31,15,41,19.20
2005,08,31,15,42,19.30
2005,08,31,15,43,19.30
2005,08,31,15,44,19.20
2005,08,31,15,45,19.00
2005,08,31,15,46,19.00
2005,08,31,15,47,19.00
2005,08,31,15,48,19.10
2005,08,31,15,49,19.10
2005,08,31,15,50,19.10
2005,08,31,15,51,19.10
2005,08,31,15,52,19.10
2005,08,31,15,53,19.10
2005,08,31,15,54,19.20
2005,08,31,15,55,19.10
2005,08,31,15,56,19.20
2005,08,31,15,57,19.20
2005,08,31,15,58,19.40
2005,08,31,15,59,19.70
2005,08,31,16,00,19.90
2005,08,31,16,01,20.00
2005,08,31,16,02,20.20
2005,08,31,16,03,20.40
2005,08,31,16,04,20.60
2005,08,31,16,05,20.80
2005,08,31,16,06,20.90
2005,08,31,16,07,21.10
2005,08,31,16,08,21.30
2005,08,31,16,09,21.30
2005,08,31,16,10,21.30
2005,08,31,16,11,21.30
2005,08,31,16,12,21.30
2005,08,31,16,13,21.20
2005,08,31,16,14,20.90
2005,08,31,16,15,20.70
2005,08,31,16,16,20.40
2005,08,31,16,17,20.60
2005,08,31,16,18,20.70
2005,08,31,16,19,20.70
2005,08,31,16,20,20.70
2005,08,31,16,21,21.00
2005,08,31,16,22,21.00
2005,08,31,16,23,21.10
2005,08,31,16,24,21.20
2005,08,31,16,25,21.30
2005,08,31,16,26,21.40
2005,08,31,16,27,21.50
2005,08,31,16,28,21.60
2005,08,31,16,29,21.60
2005,08,31,16,30,21.70
2005,08,31,16,31,21.90
2005,08,31,16,32,21.70
2005,08,31,16,33,21.70
2005,08,31,16,34,21.70
2005,08,31,16,35,21.70
2005,08,31,16,36,21.80
2005,08,31,16,37,22.10
2005,08,31,16,38,22.10
2005,08,31,16,39,22.20
2005,08,31,16,40,22.40
2005,08,31,16,41,22.60
2005,08,31,16,42,22.70
2005,08,31,16,43,22.80
2005,08,31,16,44,22.90
2005,08,31,16,45,22.90
2005,08,31,16,46,23.10
2005,08,31,16,47,23.20
2005,08,31,16,48,23.20
2005,08,31,16,49,23.10
2005,08,31,16,50,23.10
2005,08,31,16,51,23.10
2005,08,31,16,52,23.10
2005,08,31,16,53,23.20
2005,08,31,16,54,23.30
2005,08,31,16,55,23.30
2005,08,31,16,56,23.30
2005,08,31,16,57,23.30
2005,08,31,16,58,23.30
2005,08,31,16,59,23.30
2005,08,31,17,00,22.70
2005,08,31,17,01,22.60
2005,08,31,17,02,22.60
2005,08,31,17,03,22.60
2005,08,31,17,04,22.60
2005,08,31,17,05,22.40
2005,08,31,17,06,22.40
2005,08,31,17,07,22.50
2005,08,31,17,08,22.40
2005,08,31,17,09,22.30
2005,08,31,17,10,22.30
2005,08,31,17,11,22.20
2005,08,31,17,12,22.40
2005,08,31,17,13,22.50
2005,08,31,17,14,22.70
2005,08,31,17,15,22.90
2005,08,31,17,16,22.90
2005,08,31,17,17,22.90
2005,08,31,17,18,22.90
2005,08,31,17,19,22.80